Погода в Уюни

Боливия     20°27′42″S   66°49′23″W
темп.,
°C
ветер,
м/с
пор.,
м/с
влажн.,
%
обл.,
%
осадки,
мм/ч
давл.,
гПа
погр.,
м
25 февраля, чт
чт2523:00+14св47455 0.0 1018361
02:00+11всв345922 0.0 1018164
05:00+10всв456674 0.0 1018131
08:00+12св235987 0.3 1020308
11:00+16сз224035 0.4 10171667
14:00+19з422954 0.4 10122493
17:00+14всв985262 0.4 1012644
20:00+12всв795581 0.4 1017429
26 февраля, пт
пт2623:00+10сз6868100 0.6 1019399
02:00+10вюв3465100 0.6 1017437
05:00+9всв126831 0.0 101751
08:00+11всв236346 0.0 1017440
11:00+15всв554071 0.0 10151420
14:00+19вюв562840 0.0 10102656
17:00+18в1093266 0.0 10101928
20:00+13всв10134735 0.0 1015993
27 февраля, сб
сб2723:00+12юв455378 0.0 1019727
02:00+12в235583 0.0 1018591
05:00+10в356672 0.0 1018259
08:00+11всв465885 0.0 1019528
11:00+15всв66358 0.0 10171681
14:00+18всв54254 0.0 10122454
17:00+18всв542753 0.0 10102421
20:00+13всв11115561 0.1 1013905
28 февраля, вс
вс2823:00+11всв10136443 0.1 1018654
02:00+9ю10117372 0.4 1018590
05:00+8юв3472100 0.1 1018322
08:00+10в246680 0.1 1019447
11:00+15всв334223 0.0 10161649
14:00+16в223860 0.3 10111749
17:00+17в433583 0.1 10081953
20:00+13всв895365 0.2 1011671
1 марта, пн
пн123:00+12св710605 0.1 1015420
02:00+11в246648 2.3 1014266
05:00+10в4669100 0.9 1014393
08:00+10всв456799 1.1 1016381
11:00+14с335252 1.3 10131245
14:00+16ссз544576 3.0 10091436
17:00+13всв11105595 0.9 1008815
20:00+11ссз375770 0.9 1013505